Flag for Switzerland Weather past 2 weeks in Sarnen, Obwalden, Switzerland

Now
70 °F

Mild.


Feels Like: 70 °F
Forecast: 38 / 45 °F
Wind: 12 mph from Southwest

Location: Giswil

Current Time: Oct 21, 2014 at 4:23:49 PM

Latest Report: Oct 21, 2014 at 3:00 PM


Visibility: N/A

Pressure: 29.84 "Hg

Humidity: 50%

Dew point: 50 °F

Location of SarnenLocation

Historic Weather in Sarnen — Graph

°F

Sarnen temperature yesterday

Maximum temperature yesterday: 69 °F (at 4:00 PM)
Minimum temperature yesterday: 46 °F (at 8:00 AM)
Average temperature yesterday: 56 °F

Past Weeks' High & Low Weather Summary

 TemperatureHumidityPressure
High74 °F (Oct 9, 4:00 PM)100% (Oct 6, 9:00 PM)30.31 "Hg (Oct 6, 9:00 PM)
Low42 °F (Oct 19, 8:00 AM)47% (Oct 9, 4:00 PM)29.77 "Hg (Oct 9, 4:00 PM)
Average56 °F91%29.97 "Hg
* Reported Oct 6 3:00 PM — Oct 21 3:00 PM, Sarnen, Weather by CustomWeather, © 2014

Note: Actual official high and low records may vary slightly from our data, if they occured in-between our weather recording intervals... More about our weather records

Advertising

Sarnen weather history for previous 24 hours

 ConditionsComfort  
Time TempWeatherWind HumidityBarometerVisibility
3:00 PM
Oct 21
70 °FMild.12 mph50%29.84 "HgN/A
2:00 PM67 °FMild.5 mph68%29.88 "HgN/A
1:00 PM64 °FMild.7 mph81%29.90 "HgN/A
12:00 PM62 °FCool.3 mph86%29.94 "HgN/A
11:00 AM61 °FCool.2 mph90%29.97 "HgN/A
10:00 AM59 °FCool.1 mph100%29.99 "HgN/A
9:00 AM58 °FCool.2 mph95%30.00 "HgN/A
8:00 AM58 °FCool.2 mph100%29.99 "HgN/A
7:00 AM57 °FCool.2 mph100%30.00 "HgN/A
6:00 AM57 °FCool.2 mph100%30.01 "HgN/A
5:00 AM57 °FCool.1 mph100%30.03 "HgN/A
4:00 AM58 °FCool.2 mph100%30.05 "HgN/A
3:00 AM57 °FCool.1 mph100%30.03 "HgN/A
2:00 AM57 °FCool.1 mph100%30.06 "HgN/A
1:00 AM58 °FCool.2 mph100%30.11 "HgN/A
12:00 AM58 °FCool.1 mph100%30.10 "HgN/A
11:00 PM
Oct 20
58 °FCool.1 mph97%30.07 "HgN/A
10:00 PM58 °FCool.2 mph97%30.06 "HgN/A
9:00 PM58 °FCool.3 mph94%30.07 "HgN/A
8:00 PM58 °FCool.1 mph96%30.07 "HgN/A
7:00 PM60 °FCool.1 mph96%30.06 "HgN/A
6:00 PM63 °FMild.1 mph89%30.05 "HgN/A
5:00 PM67 °FMild.No wind71%30.05 "HgN/A
4:00 PM69 °FMild.2 mph49%30.06 "HgN/A
Weather by CustomWeather, © 2014

See weather overviewHow to use our weather pages